Location: Luxembourg
(49.6117°N, 6.1300°E)
Time: 10:38:47
(UTC+01:00)

OTV 5 (USA 277) - Visible Passes

Search period start: 19 January 2018 00:00
Search period end: 29 January 2018 00:00
Orbit: 404 x 417 km, 43.0° (Epoch: 07 September)

Date Brightness Start Highest point End Pass type
(mag) Time Alt. Az. Time Alt. Az. Time Alt. Az.
23 Jan ? 19:18:04 10° S 19:18:11 10° SSE 19:18:11 10° SSE visible
24 Jan ? 20:02:06 10° SW 20:02:26 12° SSW 20:02:26 12° SSW visible
25 Jan ? 19:11:27 10° SSW 19:13:47 18° SSE 19:13:52 18° SSE visible
26 Jan ? 18:21:01 10° SSW 18:22:54 14° SSE 18:24:48 10° ESE visible
26 Jan ? 19:56:44 10° SW 19:58:01 18° SW 19:58:01 18° SW visible
27 Jan ? 19:05:53 10° SW 19:08:38 23° S 19:09:24 22° SSE visible
28 Jan ? 18:15:07 10° SW 18:17:43 21° SSE 18:20:20 10° ESE visible
28 Jan ? 19:51:37 10° WSW 19:53:32 22° SSW 19:53:32 22° SSW visible
